Weather History for Anoka County, MN

Change the Weather History Date:

Sunday, October 28, 2012

  Actual Average Record
Temperature  
Mean Temperature 36 °F -  
Max Temperature 46 °F 49 °F 66 °F (2001)
Min Temperature 26 °F 34 °F 26 °F (2007)
Degree Days  
Heating Degree Days 29    
Moisture  
Dew Point 26 °F    
Average Humidity 77    
Maximum Humidity 100    
Minimum Humidity 43    
Precipitation  
Precipitation 0.00 in - - ()
Sea Level Pressure  
Sea Level Pressure 30.31 in    
Wind  
Wind Speed 2 mph (SE)    
Max Wind Speed 12 mph    
Max Gust Speed -    
Visibility 10 miles    
Events      
Averages and records for this station are not official NWS values.
T = Trace of Precipitation, MM = Missing Value Source: NWS Daily Summary

Daily Weather History Graph

Daily Weather History Graph

Search for Another Location

Airport:

Trip Planner

Search our weather history database for the weather conditions in past years. The results will help you decide how hot, cold, wet, or windy it might be!

Date:

Astronomy

Oct. 28, 2012 Rise Set
Actual Time 7:46 AM CDT 6:05 PM CDT
Civil Twilight 7:16 AM CDT 6:36 PM CDT
Nautical Twilight 6:41 AM CDT 7:10 PM CDT
Astronomical Twilight 6:07 AM CDT 7:44 PM CDT
Moon 5:23 PM CDT (10/28) 6:39 AM CDT (10/28)
Length of Visible Light 11h 19m
Length of Day
10h 18m
Waxing Gibbous, 99% of the Moon is Illuminated
Oct 28
Waxing Gibbous
Oct 29
Full
Nov 6
Last Quarter
Nov 13
New
Nov 20
First Quarter

Hourly Weather History & Observations

Time (CDT) Temp. Windchill Dew Point Humidity Pressure Visibility Wind Dir Wind Speed Gust Speed Precip Events Conditions
12:14 AM 26.6 °F - 24.8 °F 93% 30.33 in 10.0 mi Calm Calm - N/A   Clear
12:53 AM 26.6 °F - 24.8 °F 93% 30.33 in 10.0 mi Calm Calm - N/A   Clear
1:14 AM 26.6 °F - 24.8 °F 93% 30.33 in 10.0 mi Calm Calm - N/A   Clear
1:34 AM 26.6 °F - 24.8 °F 93% 30.33 in 10.0 mi Calm Calm - N/A   Scattered Clouds
1:53 AM 26.6 °F - 24.8 °F 93% 30.33 in 10.0 mi Calm Calm - N/A   Mostly Cloudy
2:14 AM 26.6 °F - 26.6 °F 100% 30.33 in 10.0 mi Calm Calm - N/A   Scattered Clouds
2:34 AM 26.6 °F - 26.6 °F 100% 30.33 in 10.0 mi Calm Calm - N/A   Scattered Clouds
2:53 AM 26.6 °F - 24.8 °F 93% 30.32 in 10.0 mi Calm Calm - N/A   Mostly Cloudy
3:14 AM 28.4 °F - 26.6 °F 93% 30.32 in 10.0 mi Calm Calm - N/A   Scattered Clouds
3:34 AM 28.4 °F - 26.6 °F 93% 30.31 in 10.0 mi Calm Calm - N/A   Mostly Cloudy
3:53 AM 30.2 °F 26.7 °F 26.6 °F 86% 30.31 in 10.0 mi SE 3.5 mph - N/A   Overcast
4:14 AM 30.2 °F 26.7 °F 26.6 °F 86% 30.31 in 10.0 mi SSE 3.5 mph - N/A   Overcast
4:34 AM 30.2 °F - 26.6 °F 86% 30.31 in 10.0 mi Calm Calm - N/A   Mostly Cloudy
4:54 AM 30.2 °F - 26.6 °F 86% 30.31 in 10.0 mi Calm Calm - N/A   Overcast
5:14 AM 30.2 °F - 26.6 °F 86% 30.31 in 10.0 mi Calm Calm - N/A   Mostly Cloudy
5:34 AM 30.2 °F - 26.6 °F 86% 30.31 in 10.0 mi Calm Calm - N/A   Mostly Cloudy
5:54 AM 30.2 °F - 26.6 °F 86% 30.31 in 10.0 mi Calm Calm - N/A   Overcast
6:14 AM 30.2 °F - 26.6 °F 86% 30.31 in 10.0 mi Calm Calm - N/A   Overcast
6:34 AM 30.2 °F - 26.6 °F 86% 30.32 in 10.0 mi Calm Calm - N/A   Scattered Clouds
6:45 AM 30.2 °F - 26.6 °F 86% 30.32 in 10.0 mi Calm Calm - N/A   Scattered Clouds
6:54 AM 28.4 °F - 26.6 °F 93% 30.32 in 10.0 mi Calm Calm - N/A   Scattered Clouds
7:45 AM 28.4 °F 24.6 °F 26.6 °F 93% 30.33 in 10.0 mi SE 3.5 mph - N/A   Mostly Cloudy
8:45 AM 30.2 °F 23.4 °F 28.4 °F 93% 30.34 in 10.0 mi SSE 6.9 mph - N/A   Mostly Cloudy
9:45 AM 37.4 °F 31.4 °F 26.6 °F 65% 30.34 in 10.0 mi South 8.1 mph - N/A   Mostly Cloudy
11:45 AM 41.0 °F 35.2 °F 24.8 °F 53% 30.33 in 10.0 mi South 9.2 mph - N/A   Mostly Cloudy
12:50 PM 44.6 °F 39.7 °F 24.8 °F 46% 30.32 in 10.0 mi SSW 9.2 mph - N/A   Mostly Cloudy
2:55 PM 44.6 °F 38.8 °F 24.8 °F 46% 30.29 in 10.0 mi SSW 11.5 mph - N/A   Mostly Cloudy
3:55 PM 44.6 °F 39.7 °F 24.8 °F 46% 30.28 in 10.0 mi South 9.2 mph - N/A   Mostly Cloudy
4:55 PM 46.4 °F 43.5 °F 24.8 °F 43% 30.27 in 10.0 mi SE 5.8 mph - N/A   Mostly Cloudy
5:45 PM 44.6 °F 42.2 °F 24.8 °F 46% 30.27 in 10.0 mi SE 4.6 mph - N/A   Mostly Cloudy
6:50 PM 42.8 °F 40.1 °F 24.8 °F 49% 30.28 in 10.0 mi ESE 4.6 mph - N/A   Mostly Cloudy
8:45 PM 37.4 °F - 26.6 °F 65% 30.29 in 10.0 mi Calm Calm - N/A   Mostly Cloudy
8:55 PM 35.6 °F 32.8 °F 26.6 °F 70% 30.29 in 10.0 mi East 3.5 mph - N/A   Scattered Clouds
9:14 PM 39.2 °F - 26.6 °F 61% 30.29 in 10.0 mi Calm Calm - N/A   Overcast
9:34 PM 39.2 °F 35.0 °F 28.4 °F 65% 30.29 in 10.0 mi ESE 5.8 mph - N/A   Overcast
9:54 PM 39.2 °F 35.9 °F 26.6 °F 61% 30.29 in 10.0 mi SE 4.6 mph - N/A   Overcast
10:13 PM 37.4 °F 32.8 °F 26.6 °F 65% 30.29 in 10.0 mi ESE 5.8 mph - N/A   Overcast
10:34 PM 37.4 °F 33.8 °F 26.6 °F 65% 30.29 in 10.0 mi SE 4.6 mph - N/A   Overcast
10:54 PM 35.6 °F 32.8 °F 26.6 °F 70% 30.29 in 10.0 mi SE 3.5 mph - N/A   Overcast
11:14 PM 35.6 °F 32.8 °F 26.6 °F 70% 30.30 in 10.0 mi ESE 3.5 mph - N/A   Scattered Clouds
11:53 PM 33.8 °F 30.8 °F 26.6 °F 75% 30.30 in 10.0 mi SE 3.5 mph - N/A   Clear